Regional Weather Roundup
Issued by NWS

Home | Current Version | Previous Version | Graphics & Text | Print | Product List | Glossary Off
Versions: 1 2 3 4 5 6 7 8 9 10 11 12 13 14 15 16 17 18 19 20 21 22 23 24 25 26 27 28 29 30 31 32 33 34 35 36 37 38 39 40 41 42 43 44 45 46 47 48 49 50

000
ASUS43 KDMX 231207
RWRIA

WEATHER ROUNDUP FOR IOWA
NATIONAL WEATHER SERVICE DES MOINES IA
700 AM CDT SAT AUG 23 2014

NOTE: "FAIR" INDICATES FEW OR NO CLOUDS BELOW 12,000 FEET WITH NO
SIGNIFICANT WEATHER AND/OR OBSTRUCTIONS TO VISIBILITY.

* - THESE STATIONS ARE NOT NWS STATIONS...THUS NOT UNDER NWS
QUALITY CONTROL.  THEY ALSO DO NOT REPORT WEATHER SUCH
AS PRECIPITATION OR FOG.

IAZ001>003-012>014-020>022-031>034-043>046-231300-
   NORTHWEST IOWA

CITY           SKY/WX    TMP DP  RH WIND       PRES   REMARKS
CARROLL *      CLOUDY    70  68  94 N8        29.93R
CHEROKEE *     CLOUDY    68  68 100 NE7       29.89F
DENISON *      CLEAR     70  70 100 E12       29.85F
LE MARS *      CLEAR     68  68 100 NE8       29.89S
ORANGE CITY *  CLEAR     70  66  88 E5        29.90R
SHELDON *      PTCLDY    68  68 100 NE9       29.89S
SIOUX CITY     CLOUDY    72  67  84 E9        29.86S
6HR MIN TEMP:  72; 6HR MAX TEMP:  78; 6HR PCP:  1.36;

SPENCER        LGT RAIN  70  67  90 NE8       29.93F
6HR MIN TEMP:  69; 6HR MAX TEMP:  74; 6HR PCP:  0.68;

STORM LAKE *   PTCLDY    68  68 100 NE10      29.90F
$$

IAZ055>058-069>071-079>083-090>094-231300-
   SOUTHWEST IOWA

CITY           SKY/WX    TMP DP  RH WIND       PRES   REMARKS
ATLANTIC *     MOCLDY    72  70  94 NE5       29.91F
AUDUBON *      PTCLDY    72  70  94 E3        29.94R
CLARINDA *     PTCLDY    72  72 100 VRB7      29.93F
COUNCIL BLFS * MOCLDY    70  70 100 E12       29.88S
CRESTON *      MOCLDY    72  72 100 CALM      29.96R
HARLAN  *      MOCLDY    70  70 100 E5        29.94R
LAMONI         TSTM      71  70  96 NE9       29.94F
6HR MIN TEMP:  71; 6HR MAX TEMP:  78; 6HR PCP:  0.18;

RED OAK *      CLOUDY    72  72 100 NE8       29.91F
SHENANDOAH *   MOCLDY    72  70  94 NE12      29.91F
$$

IAZ047>049-059>061-072>074-084-231300-
   CENTRAL IOWA

CITY           SKY/WX    TMP DP  RH WIND       PRES   REMARKS
AMES           LGT RAIN  71  71 100 NE5       29.95S
6HR MIN TEMP:  71; 6HR MAX TEMP:  76; 6HR PCP:  0.19;

ANKENY *       LGT RAIN  72  72 100 E9        29.94F
CHARITON *     LGT RAIN  70  70 100 CALM      29.96F
DES MOINES     TSTM      73  70  90 E12       29.89F
6HR MIN TEMP:  72; 6HR MAX TEMP:  79; 6HR PCP:  0.91;

GRINNELL*      HVY RAIN  72  68  88 SW12G21   30.00R
KNOXVILLE *    LGT RAIN  72  70  94 E7        29.99S
MARSHALLTOWN   LGT RAIN  71  70  96 SW3       29.97R
6HR MIN TEMP:  70; 6HR MAX TEMP:  73; 6HR PCP:  0.03;

PELLA *        HVY RAIN  72  71  97 S8        30.03R
PERRY *        LGT RAIN  70  70 100 SE5       29.92S
$$

IAZ004>006-015-016-023>025-035-036-231300-
   NORTH CENTRAL IOWA

CITY           SKY/WX    TMP DP  RH WIND       PRES   REMARKS
ALGONA *       HVY RAIN  70  70 100 E10G16    29.98R VSB 1/2
CLARION *      HVY RAIN  72  72 100 SW9       29.98R
ESTHERVILLE    LGT RAIN  68  68 100 N8        29.96F FOG
6HR MIN TEMP:  67; 6HR MAX TEMP:  71; 6HR PCP:  0.73;

FORT DODGE *   CLOUDY    70  68  94 N9        29.95F THUNDER
MASON CITY     CLOUDY    69  69 100 NE5       29.97R FOG
6HR MIN TEMP:  68; 6HR MAX TEMP:  72;

FOREST CITY *  CLOUDY    70  70 100 CALM      29.97R FOG
IOWA FALLS *   HVY RAIN  73  71  95 S16G22    29.99R
$$

IAZ007>011-017>019-026>030-037>042-050>054-066-231300-
   NORTHEAST IOWA

CITY           SKY/WX    TMP DP  RH WIND       PRES   REMARKS
CEDAR RAPIDS   FOG       73  73 100 SW3       29.95R VSB 1/4
6HR MIN TEMP:  73; 6HR MAX TEMP:  76;

CHARLES CITY * MOCLDY    72  70  94 E5        29.96R FOG
CLINTON *      CLOUDY    75  73  94 SE3       29.97S
DECORAH *      FOG       70  70 100 E3        29.95S VSB 0
DUBUQUE        CLOUDY    74  73  97 E3        29.97R FOG
6HR MIN TEMP:  71; 6HR MAX TEMP:  74;

MONTICELLO *   CLEAR     73  73 100 CALM      29.94F FOG
OELWEIN *      CLEAR     73  73 100 SE7       29.96R
WATERLOO       CLOUDY    74  72  93 SE3       29.94R FOG
6HR MIN TEMP:  72; 6HR MAX TEMP:  76; 6HR PCP:  0.01;

$$

IAZ064-065-067-068-078-231300-
   EAST CENTRAL IOWA

CITY           SKY/WX    TMP DP  RH WIND       PRES   REMARKS
DAVENPORT      CLOUDY    75  73  93 SE6       29.95S FOG
6HR MIN TEMP:  73; 6HR MAX TEMP:  75;

IOWA CITY      CLOUDY    74  74 100 CALM      29.96R FOG
6HR MIN TEMP:  73; 6HR MAX TEMP:  76; 6HR PCP:  0.01;

MT. PLEASANT * LGT RAIN  75  74  95 SW5       29.93S
MUSCATINE *    CLEAR     73  72  94 CALM      29.93S FOG
QUAD CITIES    MOCLDY    74  72  93 E5        29.94S FOG
6HR MIN TEMP:  74; 6HR MAX TEMP:  77;

$$

IAZ062-063-075>077-085>089-095>099-231300-
   SOUTHEAST IOWA

CITY           SKY/WX    TMP DP  RH WIND       PRES   REMARKS
BURLINGTON     MOCLDY    77  76  96 E3        29.92S FOG
6HR MIN TEMP:  73; 6HR MAX TEMP:  79;

FAIRFIELD *    RAIN      75  75 100 NW5       29.95S
FORT MADISON * PTCLDY    79  79 100 S3        29.93F FOG     HX  83
KEOKUK *       MOCLDY    77  75  94 CALM      29.92S FOG
OSKALOOSA *    LGT RAIN  70  69  97 NW17      29.98R
CENTERVILLE *  RAIN      72  72 100 NW14G31   30.04R
OTTUMWA        TSTM      72  71  97 MISG      29.96R VSB 1
6HR MIN TEMP:  71; 6HR MAX TEMP:  77; 6HR PCP:  0.40;

WASHINGTON *   FOG       73  73 100 NW6       29.95R VSB 1/4
$$

ABBREVIATIONS USED IN REMARKS
   TC - TEMPERATURES IN CELSIUS
  WCI - WIND CHILL INDEX
   HX - HEAT INDEX
  VSB - VISIBILITY
$$



USA.gov is the U.S. government's official web portal to all federal, state and local government web resources and services.